Janesville, WI

5:14 AM CDT on August 20, 2017 (GMT -0500)
Rock County

Weather History for KJVL - March, 2014

Change the Weather History Date:

Saturday, March 29, 2014

  Actual Average Record
Temperature  
Mean Temperature 39 °F -  
Max Temperature 46 °F 49 °F 69 °F (2005)
Min Temperature 32 °F 30 °F 23 °F (1991)
Degree Days  
Heating Degree Days 26    
Moisture  
Dew Point 27 °F    
Average Humidity 73    
Maximum Humidity 93    
Minimum Humidity 40    
Precipitation  
Precipitation 0.00 in - - ()
Sea Level Pressure  
Sea Level Pressure 30.21 in    
Wind  
Wind Speed 6 mph (ENE)    
Max Wind Speed 17 mph    
Max Gust Speed 23 mph    
Visibility 10 miles    
Events      
Averages and records for this station are not official NWS values.
T = Trace of Precipitation, MM = Missing Value Source: NWS Daily Summary

Daily Weather History Graph

Daily Weather History Graph

Search for Another Location

Airport or City:

Trip Planner

Search our weather history database for the weather conditions in past years. The results will help you decide how hot, cold, wet, or windy it might be!

Date:

Astronomy

Mar. 29, 2014 Rise Set
Actual Time 6:43 AM CDT 7:18 PM CDT
Civil Twilight 6:15 AM CDT 7:47 PM CDT
Nautical Twilight 5:41 AM CDT 8:20 PM CDT
Astronomical Twilight 5:07 AM CDT 8:55 PM CDT
Moon 5:53 AM CDT (3/29) 6:23 PM CDT (3/29)
Length of Visible Light 13h 31m
Length of Day
12h 35m
Waning Crescent, 2% of the Moon is Illuminated
Mar 29
Waning Crescent
Mar 30
New
Apr 7
First Quarter
Apr 15
Full
Apr 22
Last Quarter

Hourly Weather History & Observations

Time (CDT) Temp. Windchill Dew Point Humidity Pressure Visibility Wind Dir Wind Speed Gust Speed Precip Events Conditions
12:15 AM 33.8 °F 29.6 °F 32.0 °F 93% 30.19 in 7.0 mi ESE 4.6 mph - N/A   Overcast
12:35 AM 33.8 °F 29.6 °F 32.0 °F 93% 30.20 in 7.0 mi ESE 4.6 mph - N/A   Overcast
1:15 AM 33.8 °F 27.7 °F 32.0 °F 93% 30.21 in 7.0 mi ESE 6.9 mph - N/A   Overcast
1:35 AM 33.8 °F 27.0 °F 32.0 °F 93% 30.20 in 7.0 mi East 8.1 mph - N/A   Overcast
1:55 AM 33.8 °F 27.7 °F 30.2 °F 87% 30.19 in 7.0 mi East 6.9 mph - N/A   Overcast
2:15 AM 33.8 °F 28.6 °F 30.2 °F 87% 30.19 in 7.0 mi East 5.8 mph - N/A   Overcast
2:35 AM 33.8 °F 28.6 °F 30.2 °F 87% 30.19 in 7.0 mi East 5.8 mph - N/A   Overcast
2:55 AM 33.8 °F 27.7 °F 30.2 °F 87% 30.19 in 10.0 mi East 6.9 mph - N/A   Overcast
3:15 AM 33.8 °F 29.6 °F 30.2 °F 87% 30.19 in 10.0 mi East 4.6 mph - N/A   Overcast
3:35 AM 33.8 °F - 30.2 °F 87% 30.19 in 10.0 mi Calm Calm - N/A   Overcast
3:55 AM 33.8 °F 30.8 °F 30.2 °F 87% 30.19 in 10.0 mi NNE 3.5 mph - N/A   Overcast
4:15 AM 33.8 °F 29.6 °F 30.2 °F 87% 30.19 in 10.0 mi NNE 4.6 mph - N/A   Overcast
4:35 AM 33.8 °F 29.6 °F 28.4 °F 81% 30.19 in 10.0 mi NNE 4.6 mph - N/A   Overcast
4:55 AM 33.8 °F - 28.4 °F 81% 30.19 in 10.0 mi Calm Calm - N/A   Overcast
5:15 AM 33.8 °F 29.6 °F 28.4 °F 81% 30.18 in 10.0 mi North 4.6 mph - N/A   Overcast
5:35 AM 32.0 °F 28.7 °F 28.4 °F 87% 30.19 in 10.0 mi North 3.5 mph - N/A   Overcast
5:45 AM 33.8 °F 28.6 °F 26.6 °F 75% 30.19 in 10.0 mi NNE 5.8 mph - N/A   Overcast
6:45 AM 32.0 °F 28.7 °F 26.6 °F 80% 30.20 in 10.0 mi North 3.5 mph - N/A   Clear
7:45 AM 32.0 °F 24.8 °F 26.6 °F 80% 30.21 in 10.0 mi NNE 8.1 mph - N/A   Clear
8:45 AM 33.8 °F 23.2 °F 24.8 °F 70% 30.22 in 10.0 mi NE 17.3 mph 23.0 mph N/A   Clear
9:45 AM 35.6 °F 27.5 °F 26.6 °F 70% 30.23 in 10.0 mi NE 11.5 mph 17.3 mph N/A   Clear
10:45 AM 37.4 °F 29.8 °F 26.6 °F 65% 30.25 in 10.0 mi ENE 11.5 mph 17.3 mph N/A   Clear
11:45 AM 39.2 °F 32.0 °F 26.6 °F 61% 30.25 in 10.0 mi ENE 11.5 mph 17.3 mph N/A   Clear
12:45 PM 42.8 °F 37.0 °F 24.8 °F 49% 30.23 in 10.0 mi NE 10.4 mph - N/A   Clear
1:45 PM 44.6 °F 38.4 °F 24.8 °F 46% 30.21 in 10.0 mi ENE 12.7 mph 17.3 mph N/A   Clear
2:45 PM 46.4 °F 41.1 °F 26.6 °F 46% 30.19 in 10.0 mi NE 11.5 mph - N/A   Clear
3:45 PM 46.4 °F 42.4 °F 24.8 °F 43% 30.18 in 10.0 mi NE 8.1 mph - N/A   Clear
4:45 PM 46.4 °F 41.1 °F 23.0 °F 40% 30.19 in 10.0 mi North 11.5 mph 17.3 mph N/A   Clear
5:45 PM 46.4 °F 41.1 °F 24.8 °F 43% 30.21 in 10.0 mi North 11.5 mph - N/A   Clear
6:45 PM 44.6 °F 39.7 °F 24.8 °F 46% 30.21 in 10.0 mi NE 9.2 mph - N/A   Clear
9:15 PM 33.8 °F 27.7 °F 26.6 °F 75% 30.23 in 10.0 mi ESE 6.9 mph - N/A   Clear
9:35 PM 32.0 °F 25.6 °F 24.8 °F 75% 30.23 in 10.0 mi SE 6.9 mph - N/A   Clear
9:55 PM 32.0 °F 27.5 °F 24.8 °F 75% 30.25 in 10.0 mi ESE 4.6 mph - N/A   Clear
10:15 PM 32.0 °F 27.5 °F 23.0 °F 69% 30.25 in 10.0 mi SE 4.6 mph - N/A   Clear
10:35 PM 32.0 °F 28.7 °F 24.8 °F 75% 30.24 in 10.0 mi ESE 3.5 mph - N/A   Clear
10:55 PM 32.0 °F - 23.0 °F 69% 30.24 in 10.0 mi Calm Calm - N/A   Clear
11:15 PM 32.0 °F - 23.0 °F 69% 30.24 in 10.0 mi Calm Calm - N/A   Clear
11:35 PM 32.0 °F - 23.0 °F 69% 30.24 in 10.0 mi Calm Calm - N/A   Clear
11:55 PM 32.0 °F - 23.0 °F 69% 30.24 in 10.0 mi Calm Calm - N/A   Clear